Location: Apeadero de Los Molinos-Guadarrama
(40.7091°N, 4.0689°W)
Time: 13:21:26
(UTC+00:00)

OAO 3 Rocket - Pass Details

Date: 14 May 2021
Orbit: 629 x 682 km, 35.0° (Epoch: 18 June)

Event Time Altitude Azimuth Distance (km) Brightness Sun altitude
Rises 20:21:18 0° 229° (SW) 2,897 6.7 -9.9°
Reaches altitude 10° 20:23:57 10° 216° (SW) 1,992 5.7 -10.3°
Maximum altitude 20:27:43 25° 161° (SSE) 1,266 4.2 -10.8°
Enters shadow 20:30:24 15° 116° (ESE) 1,676 4.6 -11.3°
